Other Public Products
Issued by NWS Charleston, SC

Current Version | Previous Version | Graphics & Text | Print | Product List | Glossary On
Versions: 1 2 3 4 5 6 7 8 9 10 11 12 13 14 15 16 17 18 19 20 21 22 23 24 25 26 27 28 29 30 31 32 33 34 35 36 37 38 39 40 41 42 43 44 45 46 47 48 49 50
251 FPUS82 KCHS 241212 OPUCHS TEST...KCHS/KSAV Gateway Observations...TEST National Weather Service Charleston SC 700 AM EST SAT FEB 24 2018 NOTE: "fair" indicates few or no clouds below 12,000 feet with no significant weather and/or obstructions to visibility. SCZ050-WAZ558-NCZ071-TXZ119-213-PAZ071-DCZ001-FLZ074-172-MI076- NYZ176-178-MAZ016-IL014-TNZ027-NJZ106-GAZ044-MD014-241300- ...Gateway Observations for Charleston International... CITY SKY/WX TMP DP RH WIND PRES REMARKS Chas Airport FOG 62 61 96 CALM 30.26R VSB 1/4 6HR MIN TEMP: 61; 6HR MAX TEMP: 64; Seattle LGT RAIN 37 34 89 S20G26 29.88F WCI 27 6HR MIN TEMP: 36; 6HR MAX TEMP: 38; 6HR PCP: 0.06; Charlotte CLOUDY 59 59 100 S5 30.23R 6HR MIN TEMP: 56; 6HR MAX TEMP: 59; Dallas DFW LGT RAIN 49 47 93 E8 29.84F FOG 6HR MIN TEMP: 47; 6HR MAX TEMP: 49; 6HR PCP: 0.09; Dallas Love TSTM 49 49 100 CALM 29.91R FOG 6HR MIN TEMP: 47; 6HR MAX TEMP: 49; 6HR PCP: 0.08; Philladelphia CLOUDY 44 43 96 S3 30.19F FOG 6HR MIN TEMP: 44; 6HR MAX TEMP: 45; Wash National FOG 50 50 100 E5 30.15S VSB 1/8 6HR MIN TEMP: 48; 6HR MAX TEMP: 50; Baltimore FOG 45 45 100 E5 30.16S VSB<1/4 6HR MIN TEMP: 43; 6HR MAX TEMP: 45; 6HR PCP: TRACE; Miami LGT RAIN 73 68 84 E10 30.21R 6HR MIN TEMP: 72; 6HR MAX TEMP: 74; 6HR PCP: TRACE; Detroit CLOUDY 38 31 76 N5 30.24S WCI 34 6HR MIN TEMP: 38; 6HR MAX TEMP: 40; Newark MOCLDY 44 42 93 W7 30.18R 6HR MIN TEMP: 41; 6HR MAX TEMP: 44; Laguardia MOCLDY 46 41 82 W9 30.17R 6HR MIN TEMP: 45; 6HR MAX TEMP: 46; J F K MOCLDY 44 42 93 W9 30.18S 6HR MIN TEMP: 42; 6HR MAX TEMP: 44; Boston Logan MOCLDY 44 40 85 W13G21 30.07R 6HR MIN TEMP: 39; 6HR MAX TEMP: 44; Ft. Lauderdale MOCLDY 74 69 85 E16 30.20R 6HR MIN TEMP: 72; 6HR MAX TEMP: 74; 6HR PCP: TRACE; Chicago O`Hare CLOUDY 34 28 79 NE12 30.18F WCI 25 6HR MIN TEMP: 33; 6HR MAX TEMP: 34; Chicago Midway CLOUDY 35 31 85 E17 30.19S WCI 25 6HR MIN TEMP: 35; 6HR MAX TEMP: 36; Houston Bush CLOUDY 73 69 87 S12 29.96S 6HR MIN TEMP: 73; 6HR MAX TEMP: 74; 6HR PCP: 0.01; Houston Hobby CLOUDY 72 71 97 S8 29.97R 6HR MIN TEMP: 72; 6HR MAX TEMP: 73; 6HR PCP: 0.01; Nashville CLOUDY 62 60 93 S6 30.06S 6HR MIN TEMP: 59; 6HR MAX TEMP: 62; 6HR PCP: 0.07; Atlanta MOCLDY 64 60 87 S9 30.19S 6HR MIN TEMP: 63; 6HR MAX TEMP: 67; $$ GAZ044-118-TXZ119-213-NCZ071-DCZ001-MDZ014-506-PAZ021-071-NJZ106- NYZ176-178-MAZ106-OHZ011-021-055-MIZ076-KYZ091-ILZ014-INZ047- MNZ060-ONZ431-241300- ...Gateway Observations for Savannah International... CITY SKY/WX TMP DP RH WIND PRES REMARKS Savannah Arpt FOG 59 59 100 SE3 30.26R VSB 1/8 6HR MIN TEMP: 59; 6HR MAX TEMP: 64; Atlanta MOCLDY 64 60 87 S9 30.19S 6HR MIN TEMP: 63; 6HR MAX TEMP: 67; Charlotte CLOUDY 59 59 100 S5 30.23R 6HR MIN TEMP: 56; 6HR MAX TEMP: 59; Dallas DFW LGT RAIN 49 47 93 E8 29.84F FOG 6HR MIN TEMP: 47; 6HR MAX TEMP: 49; 6HR PCP: 0.09; Houston Bush CLOUDY 73 69 87 S12 29.96S 6HR MIN TEMP: 73; 6HR MAX TEMP: 74; 6HR PCP: 0.01; Wash National FOG 50 50 100 E5 30.15S VSB 1/8 6HR MIN TEMP: 48; 6HR MAX TEMP: 50; Wash Dulles FOG 48 48 100 CALM 30.15S VSB 1/2 6HR MIN TEMP: 47; 6HR MAX TEMP: 48; Baltimore FOG 45 45 100 E5 30.16S VSB<1/4 6HR MIN TEMP: 43; 6HR MAX TEMP: 45; 6HR PCP: TRACE; Philadelphia CLOUDY 44 43 96 S3 30.19F FOG 6HR MIN TEMP: 44; 6HR MAX TEMP: 45; Newark MOCLDY 44 42 93 W7 30.18R 6HR MIN TEMP: 41; 6HR MAX TEMP: 44; Laguardia MOCLDY 46 41 82 W9 30.17R 6HR MIN TEMP: 45; 6HR MAX TEMP: 46; J F K MOCLDY 44 42 93 W9 30.18S 6HR MIN TEMP: 42; 6HR MAX TEMP: 44; Boston MOCLDY 44 40 85 W13G21 30.07R 6HR MIN TEMP: 39; 6HR MAX TEMP: 44; Pittsburg LGT RAIN 47 43 86 NW6 30.20R 6HR MIN TEMP: 47; 6HR MAX TEMP: 57; 6HR PCP: TRACE; Akron LGT RAIN 43 39 86 NE6 30.18R 6HR MIN TEMP: 43; 6HR MAX TEMP: 50; 6HR PCP: 0.01; Cleveland LGT RAIN 38 35 89 NE15 30.23F WCI 29 6HR MIN TEMP: 38; 6HR MAX TEMP: 47; 6HR PCP: 0.06; Cincinnati CLOUDY 48 47 96 NE14 30.11F 6HR MIN TEMP: 48; 6HR MAX TEMP: 53; 6HR PCP: 0.12; Columbus LGT RAIN 46 46 100 N6 30.16R Detroit CLOUDY 38 31 76 N5 30.24S WCI 34 6HR MIN TEMP: 38; 6HR MAX TEMP: 40; Chicago O`Hare CLOUDY 34 28 79 NE12 30.18F WCI 25 6HR MIN TEMP: 33; 6HR MAX TEMP: 34; Minneapolis FAIR 8 5 87 CALM 30.18F FOG 6HR MIN TEMP: 5; 6HR MAX TEMP: 17; Indianapolis RAIN 41 40 96 NE10 30.13F FOG 6HR MIN TEMP: 41; 6HR MAX TEMP: 44; 6HR PCP: 0.30; Toronto Canada MOCLDY 37 28 70 NW9 30.21S WCI 31 $$

USA.gov is the U.S. government's official web portal to all federal, state and local government web resources and services.